• In United Kingdom
  • List of Countries
  • For 7 days
  • Water Temperature
  • Satellite Maps
  • Weather Map
  • Weather Widgets
  • user-avatar
    Login

    Hourly Weather Nampula

    Today, 16 July, Monday

    Time Temperature Precipitation Wind Pressure Humidity
    00:00 +23°C° 0.1 mm 2 mps 608 mmHg 63%
    01:00 +21°C° 0 mm 2 mps 608 mmHg 63%
    02:00 +21°C° 0 mm 2 mps 608 mmHg 64%
    03:00 +21°C° 0 mm 3 mps 608 mmHg 65%
    04:00 +21°C° 0 mm 2 mps 608 mmHg 64%
    05:00 +20°C° 0 mm 2 mps 608 mmHg 63%
    06:00 +20°C° 0 mm 2 mps 608 mmHg 63%
    07:00 +23°C° 0 mm 2 mps 608 mmHg 56%
    08:00 +24°C° 0 mm 2 mps 609 mmHg 50%
    09:00 +25°C° 0 mm 2 mps 609 mmHg 44%
    10:00 +26°C° 0 mm 3 mps 610 mmHg 40%
    11:00 +27°C° 0 mm 3 mps 610 mmHg 37%
    12:00 +29°C° 0 mm 4 mps 610 mmHg 33%
    13:00 +28°C° 0.2 mm 4 mps 610 mmHg 34%
    14:00 +28°C° 0.2 mm 5 mps 610 mmHg 34%
    15:00 +28°C° 0.2 mm 5 mps 610 mmHg 35%
    16:00 +28°C° 0.5 mm 5 mps 609 mmHg 39%
    17:00 +27°C° 0.5 mm 4 mps 609 mmHg 42%
    18:00 +26°C° 0.5 mm 4 mps 609 mmHg 46%
    19:00 +25°C° 1.4 mm 3 mps 609 mmHg 49%
    20:00 +25°C° 1.4 mm 3 mps 609 mmHg 53%
    21:00 +24°C° 1.4 mm 2 mps 609 mmHg 56%
    22:00 +24°C° 1.2 mm 2 mps 609 mmHg 58%
    23:00 +23°C° 1.2 mm 2 mps 609 mmHg 59%

    Tomorrow, 17 July, Tuesday

    Time Temperature Precipitation Wind Pressure Humidity
    00:00 +23°C° 1.2 mm 2 mps 609 mmHg 61%
    01:00 +23°C° 0.5 mm 2 mps 608 mmHg 63%
    02:00 +21°C° 0.5 mm 2 mps 608 mmHg 64%
    03:00 +21°C° 0.5 mm 3 mps 608 mmHg 66%
    04:00 +21°C° 0.2 mm 3 mps 608 mmHg 67%
    05:00 +20°C° 0.2 mm 3 mps 608 mmHg 68%
    06:00 +20°C° 0.2 mm 3 mps 608 mmHg 68%
    07:00 +21°C° 0.3 mm 3 mps 608 mmHg 64%
    08:00 +22°C° 0.3 mm 3 mps 609 mmHg 60%
    09:00 +24°C° 0.3 mm 3 mps 610 mmHg 56%
    10:00 +24°C° 0.7 mm 3 mps 610 mmHg 53%
    11:00 +25°C° 0.7 mm 3 mps 610 mmHg 49%
    12:00 +26°C° 0.7 mm 3 mps 610 mmHg 46%
    13:00 +26°C° 0.4 mm 4 mps 610 mmHg 45%
    14:00 +26°C° 0.4 mm 4 mps 610 mmHg 43%
    15:00 +26°C° 0.4 mm 4 mps 609 mmHg 42%
    16:00 +26°C° 0.5 mm 4 mps 609 mmHg 45%
    17:00 +25°C° 0.5 mm 4 mps 609 mmHg 48%
    18:00 +24°C° 0.5 mm 3 mps 608 mmHg 51%
    19:00 +24°C° 0.4 mm 3 mps 608 mmHg 54%
    20:00 +22°C° 0.4 mm 3 mps 609 mmHg 58%
    21:00 +23°C° 0.4 mm 2 mps 609 mmHg 61%
    22:00 +21°C° 0 mm 3 mps 609 mmHg 63%
    23:00 +21°C° 0 mm 3 mps 608 mmHg 65%

    Day after tomorrow, 18 July, Wednesday

    Time Temperature Precipitation Wind Pressure Humidity
    00:00 +21°C° 0 mm 3 mps 608 mmHg 66%
    01:00 +20°C° 0.2 mm 3 mps 608 mmHg 66%
    02:00 +20°C° 0.2 mm 2 mps 608 mmHg 65%
    03:00 +20°C° 0.2 mm 2 mps 608 mmHg 65%
    04:00 +20°C° 0.1 mm 2 mps 607 mmHg 66%
    05:00 +20°C° 0.1 mm 3 mps 607 mmHg 68%
    06:00 +19°C° 0.1 mm 3 mps 607 mmHg 69%
    07:00 +20°C° 0.1 mm 3 mps 608 mmHg 66%
    08:00 +21°C° 0.1 mm 3 mps 608 mmHg 63%
    09:00 +21°C° 0.1 mm 3 mps 609 mmHg 60%
    10:00 +22°C° 0.2 mm 3 mps 609 mmHg 57%
    11:00 +24°C° 0.2 mm 3 mps 609 mmHg 53%
    12:00 +25°C° 0.2 mm 2 mps 610 mmHg 50%
    13:00 +25°C° 0.3 mm 2 mps 609 mmHg 48%
    14:00 +25°C° 0.3 mm 2 mps 609 mmHg 46%
    15:00 +26°C° 0.3 mm 2 mps 609 mmHg 44%
    16:00 +25°C° 0.6 mm 2 mps 608 mmHg 47%
    17:00 +24°C° 0.6 mm 2 mps 608 mmHg 49%
    18:00 +24°C° 0.6 mm 2 mps 608 mmHg 52%
    19:00 +23°C° 0.4 mm 2 mps 608 mmHg 54%
    20:00 +23°C° 0.4 mm 2 mps 609 mmHg 56%
    21:00 +22°C° 0.4 mm 1 mps 609 mmHg 58%
    22:00 +21°C° 0.2 mm 2 mps 609 mmHg 60%
    23:00 +21°C° 0.2 mm 2 mps 609 mmHg 62%

    19 July, Thursday

    Time Temperature Precipitation Wind Pressure Humidity
    00:00 +20°C° 0.2 mm 2 mps 609 mmHg 63%
    01:00 +20°C° 0.1 mm 2 mps 608 mmHg 65%
    02:00 +20°C° 0.1 mm 2 mps 608 mmHg 66%
    03:00 +20°C° 0.1 mm 2 mps 607 mmHg 67%
    04:00 +20°C° 0.1 mm 2 mps 607 mmHg 68%
    05:00 +19°C° 0.1 mm 2 mps 608 mmHg 68%
    06:00 +19°C° 0.1 mm 2 mps 608 mmHg 69%
    07:00 +20°C° 0.1 mm 2 mps 608 mmHg 65%
    08:00 +21°C° 0.1 mm 2 mps 609 mmHg 62%
    09:00 +21°C° 0.1 mm 2 mps 610 mmHg 58%
    10:00 +23°C° 0.3 mm 2 mps 610 mmHg 54%
    11:00 +24°C° 0.3 mm 2 mps 610 mmHg 49%
    12:00 +25°C° 0.3 mm 2 mps 610 mmHg 45%
    13:00 +26°C° 0.2 mm 2 mps 610 mmHg 45%
    14:00 +26°C° 0.2 mm 2 mps 609 mmHg 44%
    15:00 +26°C° 0.2 mm 2 mps 609 mmHg 44%
    16:00 +26°C° 0.7 mm 2 mps 609 mmHg 45%
    17:00 +26°C° 0.7 mm 2 mps 609 mmHg 47%
    18:00 +25°C° 0.7 mm 2 mps 609 mmHg 48%
    19:00 +25°C° 0.5 mm 2 mps 609 mmHg 50%
    20:00 +24°C° 0.5 mm 1 mps 609 mmHg 53%
    21:00 +24°C° 0.5 mm 1 mps 610 mmHg 55%
    22:00 +24°C° 0.1 mm 1 mps 610 mmHg 56%
    23:00 +23°C° 0.1 mm 1 mps 609 mmHg 58%

    20 July, Friday

    Time Temperature Precipitation Wind Pressure Humidity
    00:00 +23°C° 0.1 mm 1 mps 609 mmHg 59%
    01:00 +23°C° 0.2 mm 1 mps 609 mmHg 61%
    02:00 +22°C° 0.2 mm 1 mps 609 mmHg 62%
    03:00 +22°C° 0.2 mm 1 mps 608 mmHg 63%
    04:00 +22°C° 0.1 mm 1 mps 608 mmHg 64%
    05:00 +20°C° 0.1 mm 2 mps 608 mmHg 65%
    06:00 +20°C° 0.1 mm 2 mps 608 mmHg 66%
    07:00 +21°C° 0 mm 2 mps 609 mmHg 62%
    08:00 +23°C° 0 mm 2 mps 609 mmHg 59%
    09:00 +24°C° 0 mm 2 mps 610 mmHg 55%
    10:00 +24°C° 0.2 mm 2 mps 610 mmHg 52%
    11:00 +25°C° 0.2 mm 2 mps 610 mmHg 49%
    12:00 +26°C° 0.2 mm 2 mps 610 mmHg 46%
    13:00 +27°C° 0.8 mm 2 mps 610 mmHg 45%
    14:00 +27°C° 0.8 mm 2 mps 609 mmHg 43%
    15:00 +27°C° 0.8 mm 3 mps 609 mmHg 41%
    16:00 +27°C° 0.5 mm 3 mps 609 mmHg 41%
    17:00 +27°C° 0.5 mm 3 mps 609 mmHg 41%
    18:00 +27°C° 0.5 mm 3 mps 609 mmHg 41%
    19:00 +26°C° 0.4 mm 2 mps 609 mmHg 45%
    20:00 +25°C° 0.4 mm 2 mps 609 mmHg 48%
    21:00 +25°C° 0.4 mm 2 mps 609 mmHg 52%
    22:00 +24°C° 0.3 mm 2 mps 609 mmHg 53%
    23:00 +24°C° 0.3 mm 1 mps 609 mmHg 55%

    21 July, Saturday

    Time Temperature Precipitation Wind Pressure Humidity
    00:00 +24°C° 0.3 mm 1 mps 609 mmHg 57%
    01:00 +23°C° 0.2 mm 1 mps 608 mmHg 59%
    02:00 +23°C° 0.2 mm 2 mps 608 mmHg 61%
    03:00 +21°C° 0.2 mm 2 mps 607 mmHg 63%
    04:00 +21°C° 0.2 mm 2 mps 607 mmHg 65%
    05:00 +21°C° 0.2 mm 2 mps 608 mmHg 66%
    06:00 +20°C° 0.2 mm 3 mps 608 mmHg 68%
    07:00 +21°C° 0 mm 3 mps 608 mmHg 64%
    08:00 +22°C° 0 mm 3 mps 609 mmHg 60%
    09:00 +24°C° 0 mm 3 mps 609 mmHg 57%
    10:00 +25°C° 0.1 mm 3 mps 610 mmHg 52%
    11:00 +26°C° 0.1 mm 3 mps 610 mmHg 48%
    12:00 +27°C° 0.1 mm 3 mps 610 mmHg 43%
    13:00 +27°C° 0.2 mm 3 mps 610 mmHg 42%
    14:00 +28°C° 0.2 mm 3 mps 609 mmHg 40%
    15:00 +28°C° 0.2 mm 3 mps 609 mmHg 39%
    16:00 +28°C° 0.2 mm 3 mps 609 mmHg 40%
    17:00 +27°C° 0.2 mm 3 mps 609 mmHg 42%
    18:00 +27°C° 0.2 mm 3 mps 609 mmHg 43%
    19:00 +26°C° 0.2 mm 2 mps 609 mmHg 47%
    20:00 +25°C° 0.2 mm 2 mps 609 mmHg 50%
    21:00 +24°C° 0.2 mm 2 mps 609 mmHg 54%
    22:00 +24°C° 0.1 mm 2 mps 609 mmHg 56%
    23:00 +24°C° 0.1 mm 2 mps 609 mmHg 58%
    Show more